Regional Weather Roundup
Issued by NWS

Home | Current Version | Previous Version | Graphics & Text | Print | Product List | Glossary On
Versions: 1 2 3 4 5 6 7 8 9 10 11 12 13 14 15 16 17 18 19 20 21 22 23 24 25 26 27 28 29 30 31 32 33 34 35 36 37 38 39 40 41 42 43 44 45 46 47 48 49 50
000
ASUS45 KABQ 030001
RWRNM
NEW MEXICO REGIONAL WEATHER ROUNDUP
NATIONAL WEATHER SERVICE ALBUQUERQUE NM
500 PM MST FRI DEC 02 2016

NOTE: "FAIR" MEANS FEW OR NO CLOUDS BELOW 12,000 FEET AGL WITH NO
       SIGNIFICANT WEATHER OR OBSTRUCTIONS TO VISION.

      THIS PRODUCT IS RELEASED AS TWO VERSIONS.  ONE VERSION NEAR
      THE TOP OF THE HOUR CONTAINING PRELIMINARY DATA FROM ALBUQUERQUE
      AND OTHER STATIONS.  A FINAL VERSION WITH ADDITIONAL DATA IS
      ISSUED ABOUT 10 MINUTES AFTER THE HOUR.

NMZ501-503-504-510>518-030100-
NORTHWEST PLATEAU/NORTHCENTRAL MOUNTAINS

CITY           SKY/WX    TMP DP  RH WIND       PRES   REMARKS
FARMINGTON     CLOUDY    36  23  59 W10       29.99R WCI  28
6HR MIN TEMP:  36; 6HR MAX TEMP:  44;

LOS ALAMOS     MOCLDY    34  24  67 S8        30.04R WCI  27
SANTA FE       FAIR      36  22  56 SE13      30.02R WCI  27
6HR MIN TEMP:  35; 6HR MAX TEMP:  44;

TAOS           CLOUDY    28  16  59 N10       30.04R WCI  19
ANGEL FIRE     LGT SNOW  25  20  83 CALM      30.07R

$$
NMZ402-403-502-505>509-030100-
WESTCENTRAL MOUNTAINS/SOUTHWEST MOUNTAINS

CITY           SKY/WX    TMP DP  RH WIND       PRES   REMARKS
GALLUP         FAIR      35  20  54 NE8       29.97R WCI  29
6HR MIN TEMP:  35; 6HR MAX TEMP:  41;

GRANTS         CLOUDY    38  21  50 SE5       29.98S WCI  35

$$
NMZ407-409-411-412-030100-
SOUTHERN DESERTS

CITY           SKY/WX    TMP DP  RH WIND       PRES   REMARKS
DEMING         CLOUDY    55  30  38 SW7       29.89R
6HR MIN TEMP:  54; 6HR MAX TEMP:  60;

LAS CRUCES     CLOUDY    57  27  31 CALM      29.90S
HOLLOMAN AFB   MOCLDY    56  25  30 CALM      29.93R
T OR C         CLOUDY    54  24  31 S9        29.90R
6HR MIN TEMP:  49; 6HR MAX TEMP:  58;


$$
NMZ519>523-030100-
CENTRAL VALLEYS/CENTRAL HIGHLANDS

CITY           SKY/WX    TMP DP  RH WIND       PRES   REMARKS
ALBUQUERQUE    MOCLDY    42  18  37 E20G30    29.98R
6HR MIN TEMP:  42; 6HR MAX TEMP:  49;

DOUBLE EAGLE   MOCLDY    39  18  41 E14G20    30.00R WCI  31
MORIARTY ARPT  FAIR      33  16  49 E8        30.07R WCI  26
6HR MIN TEMP:  33; 6HR MAX TEMP:  42;

CLINES CORNERS CLOUDY    28  17  63 E17       30.06R WCI  16
6HR MIN TEMP:  28; 6HR MAX TEMP:  35;

BELEN          FAIR      46  21  36 SE10      29.97R
6HR MIN TEMP:  46; 6HR MAX TEMP:  53;

SOCORRO        CLOUDY    49  21  34 E18G26    29.94R
6HR MIN TEMP:  46; 6HR MAX TEMP:  57;


$$
NMZ524>526-539-540-030100-
SOUTHCENTRAL MOUNTAINS

CITY           SKY/WX    TMP DP  RH WIND       PRES   REMARKS
RUIDOSO        FLURRIES  34  27  75 S6        30.06R WCI  29

$$
NMZ527>531-030100-
NORTHEAST HIGHLANDS/NORTHEAST PLAINS

CITY           SKY/WX    TMP DP  RH WIND       PRES   REMARKS
LAS VEGAS      FLURRIES  26  22  84 NE13      30.10R WCI  15
6HR MIN TEMP:  26; 6HR MAX TEMP:  33; 6HR PCP: TRACE;

RATON          LGT SNOW  27  24  89 CALM      30.12S FOG
6HR MIN TEMP:  28; 6HR MAX TEMP:  35; 6HR PCP:  0.02;

CLAYTON        CLOUDY    36  20  52 N9        30.15R WCI  29
6HR MIN TEMP:  36; 6HR MAX TEMP:  42;


$$
NMZ532>537-030100-
EASTCENTRAL PLAINS

CITY           SKY/WX    TMP DP  RH WIND       PRES   REMARKS
TUCUMCARI      CLOUDY    43  20  39 NE12      30.10R
6HR MIN TEMP:  41; 6HR MAX TEMP:  46;

CANNON AFB     CLOUDY    41  27  57 NE10      30.08R
6HR MIN TEMP:  40; 6HR MAX TEMP:  44; 6HR PCP: TRACE;

CLOVIS AIRPORT CLOUDY    39  28  65 NE8       30.08R WCI  34

$$
NMZ028-029-538-030100-
SOUTHEAST PLAINS

CITY           SKY/WX    TMP DP  RH WIND       PRES   REMARKS
ROSWELL        CLOUDY    49  31  49 NE15      30.03R
6HR MIN TEMP:  47; 6HR MAX TEMP:  52;

ARTESIA        CLOUDY    48  43  81 N5        30.03R
CARLSBAD       CLOUDY    48  42  80 NW9       30.00R
6HR MIN TEMP:  46; 6HR MAX TEMP:  51;

HOBBS          CLOUDY    45  45 100 NE10      30.03S FOG


$$




USA.gov is the U.S. government's official web portal to all federal, state and local government web resources and services.